Time,TemperatureF,DewpointF,PressureIn,WindDirection,WindDirectionDegrees,WindSpeedMPH,WindSpeedGustMPH,Humidity,HourlyPrecipIn,Conditions,Clouds,dailyrainin,SolarRadiationWatts/m^2,SoftwareType,DateUTC
2013-03-12 00:02:00,27.0,22.0,-100.00,NE,47,3.0,4.0,82,0.00,,,0.00,0.000000,,2013-03-12 07:02:00,
2013-03-12 00:32:00,26.0,22.0,-100.00,NE,53,3.0,4.0,85,0.00,,,0.00,0.000000,,2013-03-12 07:32:00,
2013-03-12 00:42:00,26.0,22.0,-100.00,NE,53,3.0,4.0,85,0.00,,,0.00,0.000000,,2013-03-12 07:42:00,
2013-03-12 00:52:00,26.0,22.0,-100.00,NE,53,3.0,4.0,85,0.00,,,0.00,0.000000,,2013-03-12 07:52:00,
2013-03-12 01:02:00,26.0,22.0,-100.00,NE,53,3.0,4.0,85,0.00,,,0.00,0.000000,,2013-03-12 08:02:00,
2013-03-12 01:33:00,25.0,22.0,-100.00,ENE,63,2.0,4.0,87,0.00,,,0.00,0.000000,,2013-03-12 08:33:00,
2013-03-12 01:42:00,25.0,22.0,-100.00,ENE,63,2.0,4.0,87,0.00,,,0.00,0.000000,,2013-03-12 08:42:00,
2013-03-12 01:52:00,25.0,22.0,-100.00,ENE,63,2.0,4.0,87,0.00,,,0.00,0.000000,,2013-03-12 08:52:00,
2013-03-12 02:02:00,25.0,22.0,-100.00,ENE,63,2.0,4.0,87,0.00,,,0.00,0.000000,,2013-03-12 09:02:00,
2013-03-12 02:33:00,24.0,21.0,-100.00,ENE,69,1.0,3.0,89,0.00,,,0.00,0.000000,,2013-03-12 09:33:00,
2013-03-12 02:42:00,24.0,21.0,-100.00,ENE,69,1.0,3.0,89,0.00,,,0.00,0.000000,,2013-03-12 09:42:00,
2013-03-12 02:52:00,24.0,21.0,-100.00,ENE,69,1.0,3.0,89,0.00,,,0.00,0.000000,,2013-03-12 09:52:00,
2013-03-12 03:02:00,24.0,21.0,-100.00,ENE,69,1.0,3.0,89,0.00,,,0.00,0.000000,,2013-03-12 10:02:00,
2013-03-12 03:33:00,24.0,22.0,-100.00,East,92,2.0,3.0,90,0.00,,,0.00,0.000000,,2013-03-12 10:33:00,
2013-03-12 03:42:00,24.0,22.0,-100.00,East,92,2.0,3.0,90,0.00,,,0.00,0.000000,,2013-03-12 10:42:00,
2013-03-12 03:52:00,24.0,22.0,-100.00,East,92,2.0,3.0,90,0.00,,,0.00,0.000000,,2013-03-12 10:52:00,
2013-03-12 04:02:00,24.0,22.0,-100.00,East,92,2.0,3.0,90,0.00,,,0.00,0.000000,,2013-03-12 11:02:00,
2013-03-12 04:32:00,23.0,21.0,-100.00,ENE,68,2.0,4.0,90,0.00,,,0.00,0.000000,,2013-03-12 11:32:00,
2013-03-12 04:42:00,23.0,21.0,-100.00,ENE,68,2.0,4.0,90,0.00,,,0.00,0.000000,,2013-03-12 11:42:00,
2013-03-12 04:52:00,23.0,21.0,-100.00,ENE,68,2.0,4.0,90,0.00,,,0.00,0.000000,,2013-03-12 11:52:00,
2013-03-12 05:02:00,23.0,21.0,-100.00,ENE,68,2.0,4.0,90,0.00,,,0.00,0.000000,,2013-03-12 12:02:00,
2013-03-12 05:32:00,23.0,21.0,-100.00,ENE,62,2.0,4.0,90,0.00,,,0.00,0.000000,,2013-03-12 12:32:00,
2013-03-12 05:42:00,23.0,21.0,-100.00,ENE,62,2.0,4.0,90,0.00,,,0.00,0.000000,,2013-03-12 12:42:00,
2013-03-12 05:52:00,23.0,21.0,-100.00,ENE,62,2.0,4.0,90,0.00,,,0.00,0.000000,,2013-03-12 12:52:00,
2013-03-12 06:01:00,23.0,21.0,-100.00,ENE,62,2.0,4.0,90,0.00,,,0.00,0.000000,,2013-03-12 13:01:00,
2013-03-12 06:33:00,22.0,20.0,-100.00,NE,55,2.0,3.0,91,0.00,,,0.00,0.000000,,2013-03-12 13:33:00,
2013-03-12 06:43:00,22.0,20.0,-100.00,NE,55,2.0,3.0,91,0.00,,,0.00,0.000000,,2013-03-12 13:43:00,
2013-03-12 06:52:00,22.0,20.0,-100.00,NE,55,2.0,3.0,91,0.00,,,0.00,0.000000,,2013-03-12 13:52:00,
2013-03-12 07:02:00,22.0,20.0,-100.00,NE,55,2.0,3.0,91,0.00,,,0.00,0.000000,,2013-03-12 14:02:00,
2013-03-12 07:33:00,23.0,21.0,-100.00,NE,49,2.0,4.0,90,0.00,,,0.00,3.000000,,2013-03-12 14:33:00,
2013-03-12 07:42:00,23.0,21.0,-100.00,NE,49,2.0,4.0,90,0.00,,,0.00,3.000000,,2013-03-12 14:42:00,
2013-03-12 07:53:00,23.0,21.0,-100.00,NE,49,2.0,4.0,90,0.00,,,0.00,3.000000,,2013-03-12 14:53:00,
2013-03-12 08:02:00,23.0,21.0,-100.00,NE,49,2.0,4.0,90,0.00,,,0.00,3.000000,,2013-03-12 15:02:00,
2013-03-12 08:32:00,44.0,31.0,-100.00,NE,48,4.0,13.0,59,-99.99,,,0.01,114.000000,,2013-03-12 15:32:00,
2013-03-12 09:33:00,49.0,23.0,-100.00,ENE,75,4.0,15.0,36,0.00,,,0.01,341.000000,,2013-03-12 16:33:00,
2013-03-12 09:43:00,49.0,23.0,-100.00,ENE,75,4.0,15.0,36,0.00,,,0.01,341.000000,,2013-03-12 16:43:00,
2013-03-12 09:53:00,49.0,23.0,-100.00,ENE,75,4.0,15.0,36,0.00,,,0.01,341.000000,,2013-03-12 16:53:00,
2013-03-12 10:02:00,49.0,23.0,-100.00,ENE,75,4.0,15.0,36,0.00,,,0.01,341.000000,,2013-03-12 17:02:00,
2013-03-12 10:34:00,51.0,24.0,-100.00,ENE,73,5.0,11.0,34,0.00,,,0.01,531.000000,,2013-03-12 17:34:00,
2013-03-12 10:44:00,51.0,24.0,-100.00,ENE,73,5.0,11.0,34,0.00,,,0.01,531.000000,,2013-03-12 17:44:00,
2013-03-12 10:53:00,51.0,24.0,-100.00,ENE,73,5.0,11.0,34,0.00,,,0.01,531.000000,,2013-03-12 17:53:00,
2013-03-12 11:02:00,51.0,24.0,-100.00,ENE,73,5.0,11.0,34,0.00,,,0.01,531.000000,,2013-03-12 18:02:00,
2013-03-12 11:33:00,55.0,25.0,-100.00,East,91,5.0,11.0,31,0.00,,,0.01,705.000000,,2013-03-12 18:33:00,
2013-03-12 11:43:00,55.0,25.0,-100.00,East,91,5.0,11.0,31,0.00,,,0.01,705.000000,,2013-03-12 18:43:00,
2013-03-12 11:53:00,55.0,25.0,-100.00,East,91,5.0,11.0,31,0.00,,,0.01,705.000000,,2013-03-12 18:53:00,
2013-03-12 12:03:00,55.0,25.0,-100.00,East,91,5.0,11.0,31,0.00,,,0.01,705.000000,,2013-03-12 19:03:00,
2013-03-12 12:33:00,57.0,24.0,-100.00,ENE,61,5.0,13.0,28,0.00,,,0.01,812.000000,,2013-03-12 19:33:00,
2013-03-12 12:43:00,57.0,24.0,-100.00,ENE,61,5.0,13.0,28,0.00,,,0.01,812.000000,,2013-03-12 19:43:00,
2013-03-12 12:53:00,57.0,24.0,-100.00,ENE,61,5.0,13.0,28,0.00,,,0.01,812.000000,,2013-03-12 19:53:00,
2013-03-12 13:02:00,57.0,24.0,-100.00,ENE,61,5.0,13.0,28,0.00,,,0.01,812.000000,,2013-03-12 20:02:00,
2013-03-12 13:33:00,58.0,22.0,-100.00,ENE,73,5.0,11.0,25,0.00,,,0.01,857.000000,,2013-03-12 20:33:00,
2013-03-12 13:42:00,58.0,22.0,-100.00,ENE,73,5.0,11.0,25,0.00,,,0.01,857.000000,,2013-03-12 20:42:00,
2013-03-12 13:53:00,58.0,22.0,-100.00,ENE,73,5.0,11.0,25,0.00,,,0.01,857.000000,,2013-03-12 20:53:00,
2013-03-12 14:02:00,58.0,22.0,-100.00,ENE,73,5.0,11.0,25,0.00,,,0.01,857.000000,,2013-03-12 21:02:00,
2013-03-12 14:33:00,59.0,23.0,-100.00,East,89,5.0,11.0,25,0.00,,,0.01,835.000000,,2013-03-12 21:33:00,
2013-03-12 14:43:00,59.0,23.0,-100.00,East,89,5.0,11.0,25,0.00,,,0.01,835.000000,,2013-03-12 21:43:00,
2013-03-12 14:52:00,59.0,23.0,-100.00,East,89,5.0,11.0,25,0.00,,,0.01,835.000000,,2013-03-12 21:52:00,
2013-03-12 15:02:00,59.0,23.0,-100.00,East,89,5.0,11.0,25,0.00,,,0.01,835.000000,,2013-03-12 22:02:00,
2013-03-12 15:33:00,60.0,25.0,-100.00,ENE,68,5.0,10.0,26,0.00,,,0.01,748.000000,,2013-03-12 22:33:00,
2013-03-12 15:43:00,60.0,25.0,-100.00,ENE,68,5.0,10.0,26,0.00,,,0.01,748.000000,,2013-03-12 22:43:00,
2013-03-12 15:53:00,60.0,25.0,-100.00,ENE,68,5.0,10.0,26,0.00,,,0.01,748.000000,,2013-03-12 22:53:00,
2013-03-12 16:02:00,60.0,25.0,-100.00,ENE,68,5.0,10.0,26,0.00,,,0.01,748.000000,,2013-03-12 23:02:00,
2013-03-12 16:34:00,60.0,24.0,-100.00,ESE,110,5.0,9.0,25,0.00,,,0.01,602.000000,,2013-03-12 23:34:00,
2013-03-12 16:43:00,60.0,24.0,-100.00,ESE,110,5.0,9.0,25,0.00,,,0.01,602.000000,,2013-03-12 23:43:00,
2013-03-12 16:52:00,60.0,24.0,-100.00,ESE,110,5.0,9.0,25,0.00,,,0.01,602.000000,,2013-03-12 23:52:00,
2013-03-12 17:02:00,60.0,24.0,-100.00,ESE,110,5.0,9.0,25,0.00,,,0.01,602.000000,,2013-03-13 00:02:00,
2013-03-12 17:33:00,59.0,23.0,-100.00,East,81,4.0,10.0,25,0.00,,,0.01,410.000000,,2013-03-13 00:33:00,
2013-03-12 17:42:00,59.0,23.0,-100.00,East,81,4.0,10.0,25,0.00,,,0.01,410.000000,,2013-03-13 00:42:00,
2013-03-12 17:53:00,59.0,23.0,-100.00,East,81,4.0,10.0,25,0.00,,,0.01,410.000000,,2013-03-13 00:53:00,
2013-03-12 18:02:00,59.0,23.0,-100.00,East,81,4.0,10.0,25,0.00,,,0.01,410.000000,,2013-03-13 01:02:00,
2013-03-12 18:33:00,52.0,20.0,-100.00,NE,43,3.0,10.0,28,0.00,,,0.01,52.000000,,2013-03-13 01:33:00,
2013-03-12 18:43:00,52.0,20.0,-100.00,NE,43,3.0,10.0,28,0.00,,,0.01,52.000000,,2013-03-13 01:43:00,
2013-03-12 18:52:00,52.0,20.0,-100.00,NE,43,3.0,10.0,28,0.00,,,0.01,52.000000,,2013-03-13 01:52:00,
2013-03-12 19:02:00,52.0,20.0,-100.00,NE,43,3.0,10.0,28,0.00,,,0.01,52.000000,,2013-03-13 02:02:00,
2013-03-12 19:33:00,42.0,21.0,-100.00,NE,40,2.0,4.0,42,0.00,,,0.01,4.000000,,2013-03-13 02:33:00,
2013-03-12 19:43:00,42.0,21.0,-100.00,NE,40,2.0,4.0,42,0.00,,,0.01,4.000000,,2013-03-13 02:43:00,
2013-03-12 19:52:00,42.0,21.0,-100.00,NE,40,2.0,4.0,42,0.00,,,0.01,4.000000,,2013-03-13 02:52:00,
2013-03-12 20:01:00,42.0,21.0,-100.00,NE,40,2.0,4.0,42,0.00,,,0.01,4.000000,,2013-03-13 03:01:00,
2013-03-12 20:32:00,35.0,25.0,-100.00,NE,54,2.0,3.0,66,0.00,,,0.01,0.000000,,2013-03-13 03:32:00,
2013-03-12 21:02:00,35.0,25.0,-100.00,NE,54,2.0,3.0,66,0.00,,,0.01,0.000000,,2013-03-13 04:02:00,
2013-03-12 21:32:00,31.0,25.0,-100.00,NE,52,3.0,4.0,77,0.00,,,0.01,0.000000,,2013-03-13 04:32:00,
2013-03-12 21:43:00,31.0,25.0,-100.00,NE,52,3.0,4.0,77,0.00,,,0.01,0.000000,,2013-03-13 04:43:00,
2013-03-12 21:53:00,31.0,25.0,-100.00,NE,52,3.0,4.0,77,0.00,,,0.01,0.000000,,2013-03-13 04:53:00,
2013-03-12 22:02:00,31.0,25.0,-100.00,NE,52,3.0,4.0,77,0.00,,,0.01,0.000000,,2013-03-13 05:02:00,
2013-03-12 22:32:00,29.0,23.0,-100.00,ENE,58,2.0,4.0,79,0.00,,,0.01,0.000000,,2013-03-13 05:32:00,
2013-03-12 22:42:00,29.0,23.0,-100.00,ENE,58,2.0,4.0,79,0.00,,,0.01,0.000000,,2013-03-13 05:42:00,
2013-03-12 22:52:00,29.0,23.0,-100.00,ENE,58,2.0,4.0,79,0.00,,,0.01,0.000000,,2013-03-13 05:52:00,
2013-03-12 23:02:00,29.0,23.0,-100.00,ENE,58,2.0,4.0,79,0.00,,,0.01,0.000000,,2013-03-13 06:02:00,
2013-03-12 23:33:00,28.0,24.0,-100.00,ENE,62,2.0,4.0,84,0.00,,,0.01,0.000000,,2013-03-13 06:33:00,
2013-03-12 23:42:00,28.0,24.0,-100.00,ENE,62,2.0,4.0,84,0.00,,,0.01,0.000000,,2013-03-13 06:42:00,
2013-03-12 23:52:00,28.0,24.0,-100.00,ENE,62,2.0,4.0,84,0.00,,,0.01,0.000000,,2013-03-13 06:52:00,